Flag for United Kingdom Weather past 2 weeks in Caversham, England, United Kingdom

Now
53 °F

Overcast.


Feels Like: 49 °F
Forecast: 47 / 58 °F
Wind: 14 mph from West

Location: Benson

Current Time: May 28, 2015 at 12:19:35 AM

Latest Report: May 27, 2015 at 11:00 PM


Visibility: 19 mi

Pressure: 30.02 "Hg

Humidity: 60%

Dew point: 39 °F

Location of CavershamLocation

Historic Weather in Caversham — Graph

°F

Caversham temperature yesterday

Maximum temperature yesterday: 64 °F (at 3:00 PM)
Minimum temperature yesterday: 37 °F (at 4:00 AM)
Average temperature yesterday: 53 °F

Past Weeks' High & Low Weather Summary

 TemperatureHumidityPressure
High66 °F (May 22, 5:00 PM)98% (May 13, 6:00 AM)30.37 "Hg (May 13, 6:00 AM)
Low34 °F (May 13, 5:00 AM)39% (May 16, 5:00 PM)29.57 "Hg (May 18, 1:00 PM)
Average52 °F74%30.11 "Hg
* Reported May 12 11:00 PM — May 27 11:00 PM, Caversham, Weather by CustomWeather, © 2015

Note: Actual official high and low records may vary slightly from our data, if they occured in-between our weather recording intervals... More about our weather records

Advertising

Caversham weather history for previous 24 hours

 ConditionsComfort  
Time TempWeatherWind HumidityBarometerVisibility
11:00 PM
Wed, May 27
53 °FOvercast.14 mph60%30.02 "Hg19 mi
9:00 PM57 °FOvercast.7 mph74%30.02 "Hg19 mi
8:00 PM58 °FOvercast.13 mph63%30.04 "Hg19 mi
7:00 PM60 °FOvercast.13 mph61%30.06 "Hg16 mi
6:00 PM62 °FOvercast.15 mph59%30.08 "Hg19 mi
5:00 PM63 °FOvercast.14 mph58%30.10 "Hg16 mi
4:00 PM64 °FOvercast.13 mph55%30.13 "Hg19 mi
3:00 PM64 °FOvercast.13 mph52%30.16 "Hg19 mi
2:00 PM62 °FPartly sunny.10 mph56%30.18 "Hg19 mi
1:00 PM61 °FPartly sunny.10 mph58%30.21 "Hg16 mi
12:00 PM59 °FPartly sunny.8 mph59%30.24 "Hg19 mi
11:00 AM57 °FPartly sunny.6 mph61%30.27 "Hg19 mi
10:00 AM56 °FScattered clouds.3 mph62%30.29 "Hg16 mi
9:00 AM53 °FScattered clouds.7 mph67%30.31 "Hg19 mi
8:00 AM50 °FPassing clouds.2 mph81%30.32 "Hg16 mi
7:00 AM46 °FPassing clouds.3 mph85%30.32 "Hg16 mi
6:00 AM44 °FPassing clouds.2 mph88%30.32 "Hg16 mi
5:00 AM43 °FPartly sunny.2 mph96%30.32 "Hg16 mi
4:00 AM37 °FPassing clouds.1 mph97%30.33 "Hg16 mi
3:00 AM39 °FChilly.1 mph96%30.33 "Hg6 mi
2:00 AM41 °FQuite cool.2 mph93%30.34 "Hg12 mi
1:00 AM44 °FPassing clouds.2 mph90%30.34 "Hg16 mi
12:00 AM49 °FPassing clouds.8 mph79%30.34 "Hg19 mi
Weather by CustomWeather, © 2015

See weather overviewHow to use our weather pages